KE5JJC Weather Reports


Display with metric or nautical units.
time (UTC)temp
F
wind
direction
speed
MPH
gust
MPH
rain 1hr
in
rain 24hr
in
rain mn
in
humidity
%
barometer
mb
20211203220055 32 227 0.0 0.0 0.00 0.00 0.00 68 1027.2
20211203214508 32 232 0.0 0.0 0.00 0.00 0.00 70 1027.4
20211203213030 31 90 0.0 0.0 0.00 0.00 0.00 71 1027.5
20211203211646 31 225 0.0 0.0 0.00 0.00 0.00 72 1027.5
20211203210258 31 229 0.0 0.0 0.00 0.00 0.00 72 1027.4
20211203210002 31 229 0.0 0.0 0.00 0.00 0.00 73 1027.3
20211203204626 31 60 0.0 0.0 0.00 0.00 0.00 74 1027.8
20211203203059 31 58 0.0 0.0 0.00 0.00 0.00 74 1027.9
20211203201609 30 22 0.0 0.0 0.00 0.00 0.00 75 1027.7
20211203200114 30 123 0.0 0.0 0.00 0.00 0.00 78 1028.3
20211203200002 30 124 0.0 0.0 0.00 0.00 0.00 78 1028.2
20211203194612 29 122 0.0 0.0 0.00 0.00 0.00 82 1028.1
20211203193210 28 122 0.0 0.0 0.00 0.00 0.00 83 1028.6
20211203191551 28 121 0.0 0.0 0.00 0.00 0.00 82 1028.8
20211203190201 29 121 0.0 0.0 0.00 0.00 0.00 83 1028.6
20211203184536 29 121 0.0 0.0 0.00 0.00 0.00 84 1028.7
20211203183024 28 121 0.0 0.0 0.00 0.00 0.00 85 1028.8
20211203181621 27 121 0.0 0.0 0.00 0.00 0.00 86 1029.0
20211203180159 26 121 0.0 0.0 0.00 0.00 0.00 86 1028.9
20211203174532 26 121 0.0 0.0 0.00 0.00 0.00 86 1028.9
20211203173020 25 121 0.0 0.0 0.00 0.00 0.00 86 1028.8
20211203171715 25 138 0.0 0.0 0.00 0.00 0.00 87 1028.4
20211203170005 24 138 0.0 0.0 0.00 0.00 0.00 87 1028.5
20211203164503 24 138 0.0 0.0 0.00 0.00 0.00 88 1028.1
20211203163116 23 138 0.0 0.0 0.00 0.00 0.00 88 1027.9
20211203161723 23 134 0.0 0.0 0.00 0.00 0.00 87 1027.8
20211203160228 24 134 0.0 0.0 0.00 0.00 0.00 86 1027.9
20211203154621 24 134 0.0 0.0 0.00 0.00 0.00 86 1027.7
20211203153048 24 134 0.0 0.0 0.00 0.00 0.00 86 1027.8
20211203151625 24 133 0.0 0.0 0.00 0.00 0.00 85 1027.6
20211203150046 24 133 0.0 0.0 0.00 0.00 0.00 83 1027.5
20211203144555 25 134 0.0 0.0 0.00 0.00 0.00 83 1027.2
20211203143256 25 134 0.0 0.0 0.00 0.00 0.00 82 1027.2
20211203143042 25 134 0.0 0.0 0.00 0.00 0.00 82 1027.3
20211203141719 25 88 0.0 0.0 0.00 0.00 0.00 81 1027.3
20211203140059 25 338 0.0 0.0 0.00 0.00 0.00 81 1027.1
20211203134600 26 313 0.0 0.0 0.00 0.00 0.00 80 1027.1
20211203133139 26 307 0.0 0.0 0.00 0.00 0.00 77 1027.1
20211203131633 27 307 0.0 0.0 0.00 0.00 0.00 77 1027.1
20211203130053 27 262 0.0 0.0 0.00 0.00 0.00 76 1026.8
20211203124512 27 236 0.0 0.0 0.00 0.00 0.00 76 1026.8
20211203123008 27 236 0.0 0.0 0.00 0.00 0.00 76 1026.6
20211203121509 27 236 0.0 0.0 0.00 0.00 0.00 75 1026.6
20211203120015 28 237 0.0 0.0 0.00 0.00 0.00 73 1026.4
20211203114605 28 292 0.0 0.0 0.00 0.00 0.00 73 1026.3
20211203113052 28 292 0.0 0.0 0.00 0.00 0.00 72 1026.4
20211203111529 28 292 0.0 0.0 0.00 0.00 0.00 71 1026.1
20211203110158 29 292 0.0 0.0 0.00 0.00 0.00 71 1026.1
20211203104718 28 292 0.0 0.0 0.00 0.00 0.00 75 1026.1
20211203103056 28 292 0.0 0.0 0.00 0.00 0.00 74 1025.8
20211203101640 28 292 0.0 0.0 0.00 0.00 0.00 74 1026.1
20211203100031 28 292 0.0 0.0 0.00 0.00 0.00 68 1025.6
20211203094627 29 292 0.0 0.0 0.00 0.00 0.00 67 1025.9
20211203093044 30 292 0.0 0.0 0.00 0.00 0.00 67 1025.7
20211203091728 30 14 0.0 0.0 0.00 0.00 0.00 66 1025.4
20211203090220 30 14 0.0 0.0 0.00 0.00 0.00 66 1025.2
20211203084648 31 14 0.0 0.0 0.00 0.00 0.00 65 1025.2
20211203083059 31 14 0.0 0.0 0.00 0.00 0.00 66 1025.3
20211203081521 30 14 0.0 0.0 0.00 0.00 0.00 70 1025.3
20211203080017 29 14 0.0 0.0 0.00 0.00 0.00 80 1024.9
20211203074537 28 14 0.0 0.0 0.00 0.00 0.00 84 1024.8
20211203073035 29 14 0.0 0.0 0.00 0.00 0.00 82 1024.7
20211203071545 30 14 0.0 0.0 0.00 0.00 0.00 79 1024.6
20211203070023 30 14 0.0 0.0 0.00 0.00 0.00 79 1024.5
20211203064548 31 14 0.0 0.0 0.00 0.00 0.00 78 1024.3
20211203063019 31 14 0.0 0.0 0.00 0.00 0.00 77 1024.1
20211203061908 31 14 0.0 0.0 0.00 0.00 0.00 75 1024.0
20211203060211 31 14 0.0 0.0 0.00 0.00 0.00 76 1024.0
20211203054559 31 14 0.0 0.0 0.00 0.00 0.00 76 1023.8
20211203053059 31 14 0.0 0.0 0.00 0.00 0.00 76 1023.6
20211203051706 32 14 0.0 0.0 0.00 0.00 0.00 76 1023.5
20211203050010 32 14 0.0 0.0 0.00 0.00 0.00 75 1023.3
20211203044600 33 21 0.0 0.0 0.00 0.00 0.00 71 1023.1
20211203043021 32 274 0.0 0.0 0.00 0.00 0.00 71 1022.8
20211203041734 32 34 0.0 0.0 0.00 0.00 0.00 76 1022.6
20211203041503 32 34 0.0 0.0 0.00 0.00 0.00 76 1022.6
20211203040057 34 34 0.0 0.0 0.00 0.00 0.00 74 1022.5
20211203034623 36 34 0.0 0.0 0.00 0.00 0.00 68 1021.9
20211203033128 36 229 0.0 0.0 0.00 0.00 0.00 59 1022.0
20211203031544 36 227 0.0 0.0 0.00 0.00 0.00 61 1021.8
20211203030100 36 227 0.0 1.0 0.00 0.00 0.00 65 1021.8
20211203024556 35 219 0.0 1.0 0.00 0.00 0.00 65 1021.6
20211203023034 36 167 0.0 0.0 0.00 0.00 0.00 65 1021.3
20211203021604 36 167 0.0 0.0 0.00 0.00 0.00 65 1021.4
20211203020024 37 167 0.0 0.0 0.00 0.00 0.00 66 1021.3
20211203014524 37 167 0.0 0.0 0.00 0.00 0.00 65 1020.8
20211203013024 37 167 0.0 0.0 0.00 0.00 0.00 62 1020.8
20211203011605 38 167 0.0 0.0 0.00 0.00 0.00 59 1020.6
20211203010034 37 167 0.0 0.0 0.00 0.00 0.00 57 1020.3
20211203004547 38 167 0.0 0.0 0.00 0.00 0.00 56 1020.0
20211203001554 39 167 0.0 0.0 0.00 0.00 0.00 54 1019.9
20211203000121 40 165 0.0 0.0 0.00 0.00 0.00 54 1019.9
20211202234658 41 165 0.0 0.0 0.00 0.00 0.00 53 1019.8
20211202234514 41 165 0.0 0.0 0.00 0.00 0.00 54 1019.8
20211202233113 42 165 0.0 0.0 0.00 0.00 0.00 53 1019.5
20211202231603 43 165 0.0 0.0 0.00 0.00 0.00 53 1019.3
20211202230109 43 165 0.0 0.0 0.00 0.00 0.00 58 1019.2
20211202224522 43 165 0.0 0.0 0.00 0.00 0.00 66 1019.1
20211202223028 43 165 0.0 0.0 0.00 0.00 0.00 69 1019.0
20211202221544 43 165 0.0 0.0 0.00 0.00 0.00 64 1018.9